Location: Unspecified
(0.0000°N, 0.0000°E)
Time: 04:00:04
(UTC+00:00)

Amateur Radio Satellites - All Passes

Search period start: 27 June 2016 03:30
Search period end: 28 June 2016 03:30
Location: Unspecified, 0.0000°N, 0.0000°E

Satellite Date Start Highest point End Downlink Frequencies (MHz)
Time Altitude Azimuth
MOZHAYETS 4 27 Jun 03:45:16 03:49:48 64° 259° (WSW) 03:54:21
KKS-1 27 Jun 04:10:52 04:14:25 23° 258° (WSW) 04:17:57 437.445
HORYU 2 27 Jun 04:11:49 04:16:06 44° 102° (ESE) 04:20:22 437.375
AIST 1 27 Jun 04:14:39 04:18:54 77° 86° (E) 04:23:12
AIST 2 27 Jun 04:26:04 04:27:34 12° 292° (WNW) 04:29:03 435.215
SRMSAT 27 Jun 04:29:45 04:33:53 19° 195° (SSW) 04:38:02 437.500
STARS 27 Jun 04:49:17 04:52:05 17° 257° (WSW) 04:54:52 437.465
Cosmos 2499 27 Jun 04:50:30 04:54:27 14° 85° (E) 04:58:17 435.465 / 435.565
CUBESAT XI-V 27 Jun 05:07:09 05:11:53 79° 258° (WSW) 05:16:35 437.345
AO-7 27 Jun 05:10:27 05:14:09 14° 287° (WNW) 05:17:51 29.400- 29.500
NOAA 15 27 Jun 05:16:55 05:21:47 40° 103° (ESE) 05:26:40 137.62
BRITE-PL 27 Jun 05:20:06 05:24:02 37° 102° (ESE) 05:28:13 437.365/2234.400
GONETS M04 27 Jun 05:22:47 05:31:18 57° 87° (E) 05:39:52
NOAA 18 27 Jun 05:25:08 05:30:14 38° 103° (ESE) 05:35:21 137.9125
CUSAT 1 27 Jun 05:28:45 05:34:20 21° 94° (E) 05:39:56 437.405
ISS 27 Jun 05:30:18 05:32:58 23° 126° (SE) 05:35:38 145.825
Cubesat XI-IV 27 Jun 05:46:34 05:51:51 60° 103° (ESE) 05:57:07 437.490
GOMX 1 27 Jun 06:03:27 06:07:49 56° 102° (ESE) 06:12:30 467.674
CUTE-I 27 Jun 06:21:38 06:26:48 51° 283° (WNW) 06:32:00 437.470
SRMSAT 27 Jun 06:22:32 06:23:58 11° 186° (S) 06:25:26 437.500
LilacSat-2 27 Jun 06:25:59 06:29:23 30° 281° (W) 06:32:49 437.200
Cosmos 2499 27 Jun 06:39:16 06:47:24 60° 268° (W) 06:54:57 435.465 / 435.565
CANX-2 27 Jun 06:40:06 06:41:06 11° 102° (ESE) 06:42:06 2200.000
HO-68 27 Jun 06:40:59 06:46:07 21° 105° (ESE) 06:51:15 435.675
CINEMA 3 27 Jun 06:47:26 06:50:43 18° 103° (ESE) 06:54:03 145.822/145.860
CUTE 1.7 + AOD 2 27 Jun 06:58:36 07:01:28 18° 102° (ESE) 07:04:20 437.475
NOAA 15 27 Jun 06:59:15 07:01:17 12° 283° (WNW) 07:03:20 137.62
JUGNU 27 Jun 07:01:36 07:04:29 14° 169° (SSE) 07:07:22 437.505
SEEDS 27 Jun 07:06:36 07:08:57 15° 102° (ESE) 07:11:18 437.485
NOAA 18 27 Jun 07:07:37 07:10:36 15° 284° (WNW) 07:13:37 137.9125
CUSAT 1 27 Jun 07:08:30 07:16:04 52° 275° (W) 07:23:43 437.405
DANDE 27 Jun 07:12:52 07:20:16 79° 94° (E) 07:28:40 436.750
DOVE 4 27 Jun 07:13:33 07:17:56 43° 281° (W) 07:22:35 437.250
STRAND 1 27 Jun 07:18:40 07:23:36 49° 258° (WSW) 07:28:32 437.568
GONETS M04 27 Jun 07:22:34 07:27:44 17° 267° (W) 07:32:58
PRISM 27 Jun 07:26:18 07:29:09 18° 78° (ENE) 07:31:58 437.425
AO-85 27 Jun 07:46:13 07:50:07 70° 68° (ENE) 07:53:54 145.980
AUBIESAT-1 27 Jun 07:48:14 07:50:59 16° 107° (ESE) 07:53:47 437.475
UWE-3 27 Jun 07:49:25 07:52:21 16° 102° (ESE) 07:55:15 435.000/436.395/437.385
AAUSAT CUBESAT 2 27 Jun 07:49:51 07:53:28 30° 102° (ESE) 07:57:05 437.432
CANX-2 27 Jun 08:13:02 08:16:41 28° 281° (WNW) 08:20:20 2200.000
SRMSAT 27 Jun 08:13:05 08:14:24 11° 175° (S) 08:15:41 437.500
COMPASS 1 27 Jun 08:21:35 08:25:40 62° 282° (WNW) 08:29:46 437.405
CINEMA 3 27 Jun 08:23:39 08:27:32 25° 281° (W) 08:31:32 145.822/145.860
M-CUBED/EXP-1 PRIME 27 Jun 08:24:09 08:28:26 68° 106° (ESE) 08:33:01 437.505
HO-68 27 Jun 08:26:50 08:33:30 42° 284° (WNW) 08:40:11 435.675
CUBEBUG 2 27 Jun 08:32:33 08:37:16 77° 281° (WNW) 08:42:02 437.445
CUTE 1.7 + AOD 2 27 Jun 08:34:12 08:37:02 18° 282° (WNW) 08:39:53 437.475
SEEDS 27 Jun 08:41:15 08:44:23 21° 282° (WNW) 08:47:31 437.485
JUGNU 27 Jun 08:49:01 08:54:06 29° 162° (SSE) 08:59:11 437.505
DANDE 27 Jun 09:00:20 09:03:10 12° 278° (W) 09:06:05 436.750
PRISM 27 Jun 09:01:25 09:04:11 17° 258° (WSW) 09:06:56 437.425
HUMSAT D 27 Jun 09:02:31 09:04:39 14° 102° (ESE) 09:06:48 437.325/437.525
ZACube-1 27 Jun 09:07:04 09:11:38 70° 282° (WNW) 09:16:12 437.345
TIGRISAT 27 Jun 09:13:36 09:16:08 15° 78° (ENE) 09:18:39 435.000
UNISAT 6 27 Jun 09:17:33 09:20:38 19° 78° (ENE) 09:23:41 437.425
Oscar 11 27 Jun 09:20:57 09:24:59 38° 281° (WNW) 09:29:01 145.826/435.025
AUBIESAT-1 27 Jun 09:21:38 09:25:07 24° 285° (WNW) 09:28:46 437.475
UWE-3 27 Jun 09:24:44 09:28:31 25° 282° (WNW) 09:32:18 435.000/436.395/437.385
FUNcube-1 27 Jun 09:25:56 09:30:13 41° 282° (WNW) 09:34:30 145.935
RS-15 27 Jun 09:40:22 09:50:59 56° 110° (ESE) 10:01:57 29.354- 29.394
DELFI C3 27 Jun 09:51:39 09:55:14 34° 281° (WNW) 09:58:50 145.870
ANTELSAT 27 Jun 09:56:13 10:00:28 75° 78° (ENE) 10:04:43 437.575/2403.000
SRMSAT 27 Jun 10:00:27 10:04:32 18° 166° (SSE) 10:08:36 437.500
QB50P2 27 Jun 10:11:37 10:12:58 11° 78° (ENE) 10:14:18 145.880/145.840
POLYITAN 1 27 Jun 10:14:07 10:15:35 12° 78° (ENE) 10:17:04 437.675
DUCHIFAT 1 27 Jun 10:16:53 10:17:34 10° 78° (ENE) 10:18:15 145.980
HUMSAT D 27 Jun 10:36:35 10:40:00 24° 282° (WNW) 10:43:25 437.325/437.525
JUGNU 27 Jun 10:37:18 10:43:16 77° 159° (SSE) 10:49:15 437.505
DX 1 27 Jun 10:38:17 10:40:14 13° 103° (ESE) 10:42:11 434.975-435.025
Cosmos 2491 27 Jun 10:46:28 10:52:44 22° 87° (E) 10:58:59 435.465 / 435.565
JAS-2 27 Jun 10:47:19 10:48:44 11° 76° (ENE) 10:50:09 435.910
TIGRISAT 27 Jun 10:49:28 10:52:34 20° 258° (WSW) 10:55:39 435.000
UNISAT 6 27 Jun 10:54:29 10:57:05 16° 258° (WSW) 10:59:41 437.425
50 SAT 27 Jun 10:58:52 11:02:17 39° 101° (ESE) 11:05:41 437.505
CUBEBUG 1 27 Jun 11:01:54 11:06:01 45° 102° (ESE) 11:10:12 437.445
VELOX 1 27 Jun 11:05:22 11:09:34 45° 102° (ESE) 11:13:48 145.980
BUGSAT 1 27 Jun 11:17:08 11:20:43 30° 79° (ENE) 11:24:17 437.445
NANOSAT C BR1 27 Jun 11:27:30 11:31:36 54° 258° (WSW) 11:35:41 145.865
QB50P1 27 Jun 11:29:33 11:33:36 47° 258° (WSW) 11:37:37 145.935-145.965
POPSAT HIP 1 27 Jun 11:32:40 11:36:39 43° 258° (WSW) 11:40:37 437.405
ESTCUBE 1 27 Jun 11:35:02 11:39:06 35° 282° (WNW) 11:43:11 437.505/2401.250
QB50P2 27 Jun 11:44:58 11:48:30 26° 258° (WSW) 11:52:02 145.880/145.840
AISAT 27 Jun 11:46:00 11:50:08 42° 282° (WNW) 11:54:19 437.250
POLYITAN 1 27 Jun 11:47:39 11:51:08 25° 258° (WSW) 11:54:36 437.675
SRMSAT 27 Jun 11:48:26 11:54:07 43° 160° (SSE) 11:59:47 437.500
DUCHIFAT 1 27 Jun 11:49:24 11:53:00 28° 258° (WSW) 11:56:34 145.980
TISAT 1 27 Jun 11:53:39 11:55:07 12° 103° (ESE) 11:56:33 437.305
RS-15 27 Jun 11:54:48 12:03:01 24° 293° (WNW) 12:11:33 29.354- 29.394
UKube-1 27 Jun 11:55:12 11:59:26 60° 282° (WNW) 12:03:42 .
YUBILEINY 27 Jun 11:59:04 12:07:46 78° 93° (E) 12:16:26 435.215
SPROUT 27 Jun 11:59:56 12:04:13 85° 282° (WNW) 12:08:32 437.525
BEESAT 3 27 Jun 12:03:47 12:06:22 17° 68° (ENE) 12:08:56 437.485
PCSat 27 Jun 12:10:22 12:15:31 46° 71° (ENE) 12:20:39 145.827
DX 1 27 Jun 12:12:33 12:16:08 26° 282° (WNW) 12:19:45 434.975-435.025
Cosmos 2504 27 Jun 12:17:08 12:22:31 21° 92° (E) 12:28:07 435.465 / 435.565
JAS-2 27 Jun 12:25:27 12:33:19 84° 257° (WSW) 12:41:05 435.910
JUGNU 27 Jun 12:26:49 12:32:22 39° 340° (NNW) 12:37:55 437.505
BEESAT 2 27 Jun 12:37:44 12:40:56 24° 68° (ENE) 12:44:09 435.950
Cosmos 2491 27 Jun 12:40:59 12:49:08 46° 267° (W) 12:57:24 435.465 / 435.565
O/OREOS (USA 219) 27 Jun 12:50:59 12:54:54 30° 76° (ENE) 12:58:52 437.305
Oscar 19 27 Jun 12:53:18 12:58:26 60° 78° (ENE) 13:03:30 437.125/150
Gurwin Techsat 1B 27 Jun 12:58:18 13:02:23 23° 77° (ENE) 13:06:27 435.225
SWISSCUBE 27 Jun 13:07:56 13:11:15 19° 103° (ESE) 13:14:34 437.505
TISAT 1 27 Jun 13:26:55 13:30:28 27° 282° (WNW) 13:34:03 437.305
ITUPSAT 1 27 Jun 13:32:22 13:36:40 34° 102° (ESE) 13:40:58 437.325
BEESAT 27 Jun 13:32:22 13:36:42 35° 103° (ESE) 13:41:01 436.000
SRMSAT 27 Jun 13:37:23 13:43:22 71° 338° (NNW) 13:49:20 437.500
BEESAT 3 27 Jun 13:41:22 13:43:47 16° 248° (WSW) 13:46:14 437.485
AO-7 27 Jun 13:52:34 13:55:54 13° 72° (ENE) 13:59:14 29.400- 29.500
PCSat 27 Jun 13:57:09 13:58:40 11° 250° (WSW) 14:00:10 145.827
YUBILEINY 27 Jun 14:03:16 14:04:10 10° 273° (W) 14:05:04 435.215
Cosmos 2504 27 Jun 14:08:33 14:15:25 40° 274° (W) 14:22:47 435.465 / 435.565
BEESAT 2 27 Jun 14:17:11 14:18:31 11° 248° (WSW) 14:19:51 435.950
JUGNU 27 Jun 14:17:59 14:21:50 17° 346° (NNW) 14:25:41 437.505
SO-50 27 Jun 14:27:22 14:32:01 49° 292° (WNW) 14:36:43 436.795
O/OREOS (USA 219) 27 Jun 14:32:39 14:34:03 11° 255° (WSW) 14:35:28 437.305
Gurwin Techsat 1B 27 Jun 14:37:56 14:42:03 23° 257° (WSW) 14:46:10 435.225
PHONESAT 2.4 27 Jun 14:41:15 14:44:08 36° 43° (NE) 14:47:00 2401.200-2431.200
AIST 2 27 Jun 14:43:58 14:47:39 31° 68° (ENE) 14:51:20 435.215
SWISSCUBE 27 Jun 14:45:07 14:48:46 22° 282° (WNW) 14:52:26 437.505
KKS-1 27 Jun 14:47:01 14:50:28 22° 102° (ESE) 14:53:55 437.445
ITAMSAT 1 27 Jun 14:51:31 14:56:36 56° 257° (WSW) 15:01:40 435.822/435.867
ITUPSAT 1 27 Jun 15:12:26 15:14:13 12° 283° (WNW) 15:16:01 437.325
BEESAT 27 Jun 15:12:37 15:14:12 12° 283° (WNW) 15:15:48 436.000
STARS 27 Jun 15:22:57 15:26:46 29° 102° (ESE) 15:30:35 437.465
SRMSAT 27 Jun 15:27:44 15:32:44 27° 342° (NNW) 15:37:42 437.500
AO-7 27 Jun 15:39:56 15:48:12 74° 254° (WSW) 15:56:30 29.400- 29.500
MOZHAYETS 4 27 Jun 16:02:17 16:06:30 37° 282° (WNW) 16:10:44
GONETS M04 27 Jun 16:07:08 16:08:40 11° 94° (E) 16:10:12
JUGNU 27 Jun 16:10:59 16:11:51 10° 356° (N) 16:12:42 437.505
AIST 1 27 Jun 16:21:17 16:25:40 73° 275° (W) 16:29:59
KKS-1 27 Jun 16:24:01 16:26:47 16° 282° (WNW) 16:29:32 437.445
HORYU 2 27 Jun 16:24:12 16:28:34 67° 78° (ENE) 16:32:56 437.375
Cubesat XI-IV 27 Jun 16:50:16 16:51:38 11° 77° (ENE) 16:52:58 437.490
Cosmos 2499 27 Jun 16:57:59 17:02:58 18° 92° (E) 17:08:09 435.465 / 435.565
STARS 27 Jun 17:01:11 17:02:51 12° 282° (WNW) 17:04:32 437.465
ISS 27 Jun 17:04:41 17:06:34 15° 54° (NE) 17:08:28 145.825
SRMSAT 27 Jun 17:19:52 17:22:33 13° 350° (N) 17:25:16 437.500
CUTE-I 27 Jun 17:21:47 17:26:23 30° 77° (ENE) 17:30:58 437.470
CUBESAT XI-V 27 Jun 17:25:47 17:30:07 43° 282° (WNW) 17:34:28 437.345
BRITE-PL 27 Jun 17:45:58 17:51:36 86° 258° (WSW) 17:56:52 437.365/2234.400
NOAA 15 27 Jun 17:53:56 17:59:14 72° 257° (WSW) 18:04:31 137.62
GONETS M04 27 Jun 17:56:21 18:05:08 78° 273° (W) 18:13:50
DOVE 4 27 Jun 17:58:53 18:01:59 17° 80° (E) 18:04:56 437.250
JUGNU 27 Jun 18:00:27 18:02:05 11° 7° (N) 18:03:42 437.505
NOAA 18 27 Jun 18:09:18 18:14:42 66° 257° (WSW) 18:20:06 137.9125
CUSAT 1 27 Jun 18:11:18 18:13:09 17° 84° (E) 18:14:58 437.405
STRAND 1 27 Jun 18:13:09 18:17:17 25° 103° (ESE) 18:21:25 437.568
LilacSat-2 27 Jun 18:20:32 18:24:00 35° 259° (WSW) 18:27:27 437.200
Cubesat XI-IV 27 Jun 18:26:19 18:31:24 46° 257° (WSW) 18:36:28 437.490
GOMX 1 27 Jun 18:27:19 18:32:28 68° 258° (WSW) 18:37:16 467.674
HO-68 27 Jun 18:33:22 18:37:44 17° 75° (ENE) 18:42:06 435.675
ISS 27 Jun 18:40:41 18:42:49 16° 234° (SW) 18:44:57 145.825
CANX-2 27 Jun 18:45:27 18:47:35 14° 78° (ENE) 18:49:42 2200.000
Cosmos 2499 27 Jun 18:48:19 18:55:34 48° 274° (W) 19:03:22 435.465 / 435.565
CUTE-I 27 Jun 19:02:43 19:06:09 18° 257° (WSW) 19:09:35 437.470
CINEMA 3 27 Jun 19:03:55 19:07:28 25° 79° (E) 19:10:55 145.822/145.860
CUTE 1.7 + AOD 2 27 Jun 19:04:32 19:07:50 22° 78° (ENE) 19:11:07 437.475
SEEDS 27 Jun 19:11:24 19:14:16 18° 78° (ENE) 19:17:07 437.485
PRISM 27 Jun 19:29:02 19:31:54 19° 102° (ESE) 19:34:45 437.425
DOVE 4 27 Jun 19:35:46 19:39:26 22° 257° (WSW) 19:42:56 437.250
JUGNU 27 Jun 19:47:41 19:51:59 20° 16° (NNE) 19:56:14 437.505
AUBIESAT-1 27 Jun 19:50:49 19:50:51 10° 76° (ENE) 19:50:52 437.475
STRAND 1 27 Jun 19:52:33 19:56:11 20° 283° (WNW) 19:59:48 437.568
AAUSAT CUBESAT 2 27 Jun 19:53:20 19:57:09 34° 79° (ENE) 20:00:56 437.432
Oscar 11 27 Jun 19:56:38 19:57:50 11° 78° (ENE) 19:59:02 145.826/435.025
AO-85 27 Jun 19:57:14 20:02:27 63° 292° (WNW) 20:07:49 145.980
UWE-3 27 Jun 20:00:31 20:03:32 20° 78° (ENE) 20:06:32 435.000/436.395/437.385
FUNcube-1 27 Jun 20:03:08 20:03:44 10° 78° (ENE) 20:04:22 145.935
DANDE 27 Jun 20:05:18 20:06:27 12° 269° (W) 20:07:33 436.750
HO-68 27 Jun 20:18:16 20:25:06 50° 255° (WSW) 20:31:57 435.675
CANX-2 27 Jun 20:19:47 20:23:10 23° 259° (WSW) 20:26:32 2200.000
M-CUBED/EXP-1 PRIME 27 Jun 20:25:36 20:29:09 61° 75° (ENE) 20:32:28 437.505
COMPASS 1 27 Jun 20:25:50 20:29:55 53° 259° (WSW) 20:34:00 437.405
CUTE 1.7 + AOD 2 27 Jun 20:41:06 20:43:24 14° 258° (WSW) 20:45:42 437.475
CINEMA 3 27 Jun 20:42:40 20:44:19 12° 257° (WSW) 20:45:57 145.822/145.860
CUBEBUG 2 27 Jun 20:45:49 20:49:49 47° 258° (WSW) 20:53:47 437.445
SEEDS 27 Jun 20:46:52 20:49:41 18° 258° (WSW) 20:52:31 437.485
SRMSAT 27 Jun 21:00:22 21:03:10 13° 11° (N) 21:05:59 437.500
PRISM 27 Jun 21:04:35 21:06:56 15° 282° (WNW) 21:09:18 437.425
HUMSAT D 27 Jun 21:07:03 21:09:24 15° 78° (ENE) 21:11:46 437.325/437.525
ZACube-1 27 Jun 21:17:30 21:21:29 46° 258° (WSW) 21:25:27 437.345
RS-15 27 Jun 21:22:18 21:33:57 50° 69° (ENE) 21:45:08 29.354- 29.394
AUBIESAT-1 27 Jun 21:22:37 21:25:09 18° 253° (WSW) 21:27:35 437.475
TIGRISAT 27 Jun 21:25:15 21:29:11 27° 102° (ESE) 21:33:06 435.000
UNISAT 6 27 Jun 21:29:41 21:33:53 33° 102° (ESE) 21:38:05 437.425
Oscar 11 27 Jun 21:29:57 21:33:42 29° 258° (WSW) 21:37:26 145.826/435.025
JUGNU 27 Jun 21:35:36 21:41:18 49° 20° (NNE) 21:46:58 437.505
FUNcube-1 27 Jun 21:36:14 21:39:44 27° 258° (WSW) 21:43:14 145.935
UWE-3 27 Jun 21:37:27 21:39:44 15° 258° (WSW) 21:42:02 435.000/436.395/437.385
DELFI C3 27 Jun 21:50:26 21:54:08 36° 259° (WSW) 21:57:50 145.870
ANTELSAT 27 Jun 22:09:01 22:13:42 71° 282° (WNW) 22:18:23 437.575/2403.000
ESTCUBE 1 27 Jun 22:13:55 22:16:43 16° 78° (ENE) 22:19:29 437.505/2401.250
QB50P2 27 Jun 22:16:53 22:19:15 15° 102° (ESE) 22:21:37 145.880/145.840
POLYITAN 1 27 Jun 22:19:24 22:21:52 15° 102° (ESE) 22:24:22 437.675
DUCHIFAT 1 27 Jun 22:21:00 22:23:01 13° 102° (ESE) 22:25:01 145.980
AISAT 27 Jun 22:24:03 22:25:46 12° 78° (ENE) 22:27:27 437.250
YUBILEINY 27 Jun 22:39:32 22:44:50 17° 87° (E) 22:50:07 435.215
HUMSAT D 27 Jun 22:41:50 22:44:46 19° 258° (WSW) 22:47:42 437.325/437.525
DX 1 27 Jun 22:47:00 22:49:56 18° 78° (ENE) 22:52:52 434.975-435.025
SRMSAT 27 Jun 22:47:57 22:52:58 28° 18° (NNE) 22:57:58 437.500
50 SAT 27 Jun 22:49:07 22:52:16 27° 78° (ENE) 22:55:25 437.505
TIGRISAT 27 Jun 23:02:52 23:05:35 15° 282° (WNW) 23:08:18 435.000
UNISAT 6 27 Jun 23:08:29 23:10:19 12° 282° (WNW) 23:12:08 437.425
CUBEBUG 1 27 Jun 23:11:53 23:16:16 65° 78° (ENE) 23:20:35 437.445
VELOX 1 27 Jun 23:16:54 23:21:19 68° 78° (ENE) 23:25:42 145.980
Cosmos 2491 27 Jun 23:18:21 23:26:38 45° 93° (E) 23:34:50 435.465 / 435.565
BUGSAT 1 27 Jun 23:19:51 23:23:38 34° 102° (ESE) 23:27:29 437.445
JUGNU 27 Jun 23:24:32 23:30:21 60° 201° (SSW) 23:36:08 437.505
NANOSAT C BR1 27 Jun 23:33:16 23:37:19 45° 282° (WNW) 23:41:24 145.865
QB50P1 27 Jun 23:35:41 23:39:39 39° 282° (WNW) 23:43:39 145.935-145.965
RS-15 27 Jun 23:35:55 23:45:55 31° 249° (WSW) 23:55:41 29.354- 29.394
POPSAT HIP 1 27 Jun 23:38:51 23:42:45 36° 282° (WNW) 23:46:42 437.405
ESTCUBE 1 27 Jun 23:49:40 23:53:14 23° 258° (WSW) 23:56:49 437.505/2401.250
QB50P2 27 Jun 23:51:28 23:54:46 22° 282° (WNW) 23:58:07 145.880/145.840
POLYITAN 1 27 Jun 23:54:07 23:57:24 22° 282° (WNW) 00:00:42 437.675
DUCHIFAT 1 27 Jun 23:55:00 23:58:25 24° 282° (WNW) 00:01:53 145.980
BEESAT 3 27 Jun 23:56:14 23:58:50 17° 112° (ESE) 00:01:26 437.485
AISAT 27 Jun 23:58:08 00:01:58 29° 258° (WSW) 00:05:47 437.250
TISAT 1 27 Jun 23:58:23 00:00:28 14° 78° (ENE) 00:02:33 437.305
JAS-2 28 Jun 00:00:39 00:05:36 46° 103° (ESE) 00:10:39 435.910
UKube-1 28 Jun 00:03:55 00:08:03 44° 258° (WSW) 00:12:10 .
SPROUT 28 Jun 00:07:30 00:11:45 65° 259° (W) 00:15:56 437.525
DX 1 28 Jun 00:22:45 00:25:52 19° 257° (WSW) 00:28:58 434.975-435.025
Cosmos 2504 28 Jun 00:27:48 00:35:06 32° 86° (E) 00:41:59 435.465 / 435.565
BEESAT 2 28 Jun 00:31:16 00:34:32 25° 112° (ESE) 00:37:47 435.950
YUBILEINY 28 Jun 00:32:39 00:41:14 57° 267° (W) 00:49:50 435.215
SRMSAT 28 Jun 00:36:22 00:42:16 75° 22° (NNE) 00:48:12 437.500
PCSat 28 Jun 00:46:24 00:51:41 56° 289° (WNW) 00:56:57 145.827
O/OREOS (USA 219) 28 Jun 01:01:37 01:06:03 52° 105° (ESE) 01:10:27 437.305
SO-50 28 Jun 01:02:14 01:04:40 14° 67° (ENE) 01:07:03 436.795
JUGNU 28 Jun 01:14:58 01:19:34 23° 197° (SSW) 01:24:10 437.505
Cosmos 2491 28 Jun 01:16:38 01:23:03 23° 273° (W) 01:29:28 435.465 / 435.565
Oscar 19 28 Jun 01:27:01 01:31:58 52° 282° (WNW) 01:36:59 437.125/150
SWISSCUBE 28 Jun 01:28:51 01:33:14 36° 77° (ENE) 01:37:34 437.505
TISAT 1 28 Jun 01:32:36 01:35:52 22° 258° (WSW) 01:39:07 437.305
BEESAT 3 28 Jun 01:33:55 01:36:15 15° 292° (WNW) 01:38:36 437.485
Gurwin Techsat 1B 28 Jun 01:35:33 01:40:48 66° 103° (ESE) 01:46:05 435.225
ITAMSAT 1 28 Jun 01:48:15 01:52:22 24° 103° (ESE) 01:56:29 435.822/435.867
BEESAT 28 Jun 01:53:52 01:58:37 70° 77° (ENE) 02:03:21 436.000
ITUPSAT 1 28 Jun 01:54:13 01:58:59 68° 77° (ENE) 02:03:43 437.325
PHONESAT 2.4 28 Jun 02:09:49 02:12:14 21° 137° (SE) 02:14:39 2401.200-2431.200
BEESAT 2 28 Jun 02:11:15 02:12:07 11° 292° (WNW) 02:12:58 435.950
AO-7 28 Jun 02:15:57 02:22:12 24° 107° (ESE) 02:28:26 29.400- 29.500
Cosmos 2504 28 Jun 02:20:56 02:28:05 31° 268° (W) 02:34:54 435.465 / 435.565
SRMSAT 28 Jun 02:26:00 02:31:30 40° 200° (SSW) 02:37:02 437.500
SO-50 28 Jun 02:41:17 02:44:52 24° 248° (WSW) 02:48:25 436.795
AIST 2 28 Jun 02:42:11 02:46:01 38° 112° (ESE) 02:49:50 435.215
MOZHAYETS 4 28 Jun 02:43:19 02:46:18 17° 78° (ENE) 02:49:17
KKS-1 28 Jun 02:59:04 03:03:03 32° 78° (ENE) 03:06:58 437.445
JUGNU 28 Jun 03:07:13 03:09:18 12° 189° (S) 03:11:23 437.505
SWISSCUBE 28 Jun 03:09:18 03:10:44 11° 257° (WSW) 03:12:09 437.505
